Tracking 19794 objects as of 21-Jul-2019
HD Live streaming from Space Station
objects crossing your sky now

SL-8 DEB

Track SL-8 DEB now!
10-day predictions


NORAD ID: 29282
Int'l Code: 1981-120L
Perigee: 1,655.5 km
Apogee: 1,685.9 km
Inclination: 83.0 °
Period: 119.6 minutes
Semi major axis: 8041 km
RCS: 0.0115 m2 (small)
Launch date: December 17, 1981
Source: Commonwealth of Independent States (former USSR) (CIS)
Launch site: PLESETSK MISSILE AND SPACE COMPLEX (PKMTR)

Note: This is SATELLITE DEBRIS
aabbcc
Your satellite tracking list
Your tracking list is empty




NASA's NSSDC Master Catalog

Two Line Element Set (TLE):
1 29282U 81120L   19201.53805670 -.00000027 +00000-0 -42723-3 0  9994
2 29282 082.9588 039.0993 0018908 203.2064 188.2037 12.03874276305424
Source of the keplerian elements: AFSPC